DLH12B BIKF-EIDW

Flight info

Callsign DLH12B
Flight time 2h 7m
Altitude 37000
Route RIMUM1A RIMUM DCT RUMUX DCT RAPAX DCT ETILO/N0458F370 DCT EVNAL DCT TUXOS DCT BELZU DCT NUMPI/N0415F240 P620 NIMAT NIMAT4L
Aircraft A320/M-SDE3FGHIRWY/LB1

Departure

Time 2026-05-07 17:48
Airport Keflavik International Airport (BIKF)

Arrival

Time 2026-05-07 19:55
Airport Dublin Airport (EIDW)
Time Latitude Longitude Altitude Speed Heading
2026-05-07 17:31 63.99281 -22.62452 141 ft 0 kts 360°
2026-05-07 17:39 63.99276 -22.62452 140 ft 2 kts 360°
2026-05-07 17:39 63.99260 -22.62452 140 ft 2 kts 360°
2026-05-07 17:40 63.99216 -22.62452 140 ft 7 kts 360°
2026-05-07 17:40 63.99197 -22.62452 140 ft 1 kts 26°
2026-05-07 17:40 63.99191 -22.62459 140 ft 1 kts 46°
2026-05-07 17:40 63.99186 -22.62472 140 ft 1 kts 50°
2026-05-07 17:41 63.99178 -22.62490 140 ft 0 kts 82°
2026-05-07 17:42 63.99178 -22.62460 140 ft 7 kts 89°
2026-05-07 17:42 63.99175 -22.62253 140 ft 19 kts 91°
2026-05-07 17:43 63.99176 -22.61884 141 ft 27 kts 92°
2026-05-07 17:43 63.99178 -22.61462 150 ft 25 kts 90°
2026-05-07 17:43 63.99138 -22.61143 157 ft 19 kts 167°
2026-05-07 17:43 63.98973 -22.61126 160 ft 32 kts 180°
2026-05-07 17:44 63.98697 -22.61133 159 ft 46 kts 180°
2026-05-07 17:44 63.98342 -22.61128 159 ft 53 kts 179°
2026-05-07 17:44 63.98141 -22.61090 160 ft 7 kts 134°
2026-05-07 17:44 63.98140 -22.61065 162 ft 3 kts 97°
2026-05-07 17:45 63.98064 -22.60929 168 ft 25 kts 187°
2026-05-07 17:45 63.97940 -22.60945 169 ft 15 kts 179°
2026-05-07 17:45 63.97837 -22.60943 170 ft 16 kts 179°
2026-05-07 17:45 63.97637 -22.60939 168 ft 41 kts 179°
2026-05-07 17:46 63.97447 -22.60872 166 ft 10 kts 121°
2026-05-07 17:46 63.97433 -22.60708 169 ft 22 kts 104°
2026-05-07 17:46 63.97423 -22.60514 172 ft 2 kts 351°
2026-05-07 17:46 63.97444 -22.60539 172 ft 4 kts 345°
2026-05-07 17:47 63.97449 -22.60538 172 ft 0 kts 356°
2026-05-07 17:47 63.97740 -22.60545 172 ft 87 kts 360°
2026-05-07 17:47 63.98594 -22.60540 174 ft 158 kts 360°
2026-05-07 17:47 63.99804 -22.60573 680 ft 181 kts 360°
2026-05-07 17:48 64.01104 -22.60627 1433 ft 195 kts
2026-05-07 17:48 64.02442 -22.60624 2620 ft 191 kts
2026-05-07 17:48 64.03788 -22.60602 3656 ft 197 kts
2026-05-07 17:48 64.05197 -22.60394 4274 ft 211 kts 17°
2026-05-07 17:49 64.06379 -22.58350 4780 ft 224 kts 58°
2026-05-07 17:49 64.06784 -22.54873 5473 ft 232 kts 83°
2026-05-07 17:49 64.06774 -22.51157 6201 ft 236 kts 90°
2026-05-07 17:49 64.06602 -22.47407 6903 ft 241 kts 102°
2026-05-07 17:50 64.05845 -22.43937 7574 ft 250 kts 126°
2026-05-07 17:50 64.04535 -22.41267 8283 ft 258 kts 147°
2026-05-07 17:50 64.02840 -22.39830 9016 ft 263 kts 166°
2026-05-07 17:50 64.01041 -22.38923 9707 ft 266 kts 166°
2026-05-07 17:51 63.99217 -22.38019 10365 ft 270 kts 166°
2026-05-07 17:51 63.97369 -22.37108 11009 ft 274 kts 166°
2026-05-07 17:51 63.95497 -22.36190 11641 ft 277 kts 166°
2026-05-07 17:51 63.93597 -22.35257 12251 ft 281 kts 166°
2026-05-07 17:52 63.91678 -22.34318 12853 ft 284 kts 167°
2026-05-07 17:52 63.89735 -22.33369 13457 ft 287 kts 167°
2026-05-07 17:52 63.87774 -22.32414 14051 ft 289 kts 167°
2026-05-07 17:52 63.85798 -22.31452 14632 ft 292 kts 167°
2026-05-07 17:53 63.83827 -22.30494 15184 ft 295 kts 167°
2026-05-07 17:53 63.81815 -22.29513 15731 ft 297 kts 167°
2026-05-07 17:53 63.79785 -22.28517 16270 ft 300 kts 167°
2026-05-07 17:53 63.77732 -22.27500 16791 ft 303 kts 167°
2026-05-07 17:54 63.75660 -22.26474 17316 ft 306 kts 167°
2026-05-07 17:54 63.73576 -22.25448 17828 ft 308 kts 167°
2026-05-07 17:54 63.71473 -22.24420 18336 ft 310 kts 167°
2026-05-07 17:54 63.69349 -22.23388 18835 ft 313 kts 167°
2026-05-07 17:55 63.67213 -22.22351 19304 ft 315 kts 167°
2026-05-07 17:55 63.65058 -22.21303 19767 ft 318 kts 167°
2026-05-07 17:55 63.62979 -22.20297 20219 ft 321 kts 167°
2026-05-07 17:55 63.60787 -22.19239 20672 ft 323 kts 168°
2026-05-07 17:56 63.58582 -22.18177 21093 ft 326 kts 168°
2026-05-07 17:56 63.56358 -22.17113 21521 ft 328 kts 168°
2026-05-07 17:56 63.54115 -22.16032 21948 ft 330 kts 166°
2026-05-07 17:56 63.51909 -22.14552 22347 ft 333 kts 159°
2026-05-07 17:57 63.49772 -22.12489 22641 ft 340 kts 154°
2026-05-07 17:57 63.48332 -22.10971 22726 ft 350 kts 154°
2026-05-07 17:57 63.45299 -22.07779 22901 ft 370 kts 154°
2026-05-07 17:57 63.42919 -22.05282 23032 ft 384 kts 154°
2026-05-07 17:58 63.40457 -22.02713 23158 ft 397 kts 154°
2026-05-07 17:58 63.37906 -22.00064 23288 ft 411 kts 154°
2026-05-07 17:58 63.35307 -21.97377 23414 ft 423 kts 154°
2026-05-07 17:58 63.32601 -21.94588 23536 ft 433 kts 154°
2026-05-07 17:59 63.29838 -21.91739 23668 ft 443 kts 154°
2026-05-07 17:59 63.27016 -21.88826 23786 ft 451 kts 154°
2026-05-07 17:59 63.24145 -21.85872 23912 ft 457 kts 154°
2026-05-07 17:59 63.21243 -21.82893 24046 ft 462 kts 154°
2026-05-07 18:00 63.18306 -21.79885 24168 ft 468 kts 154°
2026-05-07 18:00 63.15334 -21.76853 24294 ft 473 kts 154°
2026-05-07 18:00 63.12331 -21.73798 24420 ft 477 kts 155°
2026-05-07 18:00 63.09372 -21.70420 24544 ft 480 kts 147°
2026-05-07 18:01 63.06679 -21.66060 24670 ft 481 kts 137°
2026-05-07 18:01 63.04329 -21.60798 24798 ft 482 kts 129°
2026-05-07 18:01 63.02115 -21.55240 24924 ft 483 kts 130°
2026-05-07 18:01 62.99880 -21.49678 25048 ft 484 kts 130°
2026-05-07 18:02 62.95414 -21.38674 25297 ft 485 kts 130°
2026-05-07 18:02 62.93165 -21.33142 25421 ft 486 kts 130°
2026-05-07 18:02 62.90914 -21.27600 25550 ft 486 kts 130°
2026-05-07 18:03 62.88661 -21.22074 25669 ft 486 kts 130°
2026-05-07 18:03 62.86459 -21.16690 25792 ft 486 kts 130°
2026-05-07 18:03 62.84197 -21.11185 25916 ft 486 kts 130°
2026-05-07 18:03 62.81933 -21.05692 26031 ft 486 kts 130°
2026-05-07 18:04 62.79667 -21.00191 26163 ft 486 kts 130°
2026-05-07 18:04 62.77398 -20.94692 26288 ft 487 kts 130°
2026-05-07 18:04 62.75131 -20.89187 26401 ft 487 kts 130°
2026-05-07 18:04 62.72862 -20.83682 26539 ft 487 kts 130°
2026-05-07 18:05 62.70612 -20.78260 26658 ft 488 kts 130°
2026-05-07 18:05 62.68331 -20.72788 26787 ft 488 kts 130°
2026-05-07 18:05 62.66044 -20.67325 26910 ft 488 kts 131°
2026-05-07 18:05 62.63754 -20.61868 27031 ft 488 kts 131°
2026-05-07 18:06 62.61464 -20.56435 27156 ft 487 kts 131°
2026-05-07 18:06 62.59177 -20.51023 27281 ft 487 kts 131°
2026-05-07 18:06 62.56884 -20.45595 27405 ft 488 kts 131°
2026-05-07 18:06 62.54590 -20.40173 27531 ft 488 kts 131°
2026-05-07 18:07 62.52293 -20.34754 27655 ft 488 kts 131°
2026-05-07 18:07 62.49997 -20.29345 27775 ft 488 kts 131°
2026-05-07 18:07 62.47698 -20.23940 27908 ft 488 kts 131°
2026-05-07 18:07 62.45390 -20.18535 28031 ft 488 kts 131°
2026-05-07 18:08 62.43089 -20.13148 28148 ft 488 kts 131°
2026-05-07 18:08 62.40787 -20.07769 28288 ft 488 kts 131°
2026-05-07 18:08 62.38475 -20.02403 28405 ft 488 kts 132°
2026-05-07 18:08 62.36037 -19.97321 28532 ft 489 kts 137°
2026-05-07 18:09 62.33486 -19.92466 28658 ft 489 kts 137°
2026-05-07 18:09 62.30941 -19.87622 28780 ft 489 kts 137°
2026-05-07 18:09 62.28405 -19.82769 28908 ft 489 kts 137°
2026-05-07 18:09 62.25868 -19.77896 29031 ft 489 kts 137°
2026-05-07 18:10 62.23357 -19.73098 29159 ft 489 kts 137°
2026-05-07 18:10 62.20814 -19.68277 29282 ft 489 kts 137°
2026-05-07 18:10 62.18269 -19.63449 29408 ft 488 kts 137°
2026-05-07 18:10 62.15725 -19.58640 29533 ft 488 kts 137°
2026-05-07 18:11 62.13178 -19.53834 29658 ft 488 kts 138°
2026-05-07 18:11 62.08077 -19.44269 29908 ft 488 kts 138°
2026-05-07 18:11 62.05527 -19.39499 30033 ft 487 kts 138°
2026-05-07 18:12 62.02976 -19.34743 30159 ft 487 kts 138°
2026-05-07 18:12 61.97867 -19.25273 30409 ft 487 kts 138°
2026-05-07 18:13 61.93617 -19.17410 30615 ft 486 kts 138°
2026-05-07 18:13 61.91074 -19.12703 30740 ft 486 kts 138°
2026-05-07 18:13 61.88522 -19.07996 30860 ft 486 kts 138°
2026-05-07 18:13 61.85970 -19.03308 30989 ft 486 kts 138°
2026-05-07 18:14 61.83416 -18.98623 31112 ft 485 kts 139°
2026-05-07 18:14 61.80860 -18.93952 31236 ft 485 kts 139°
2026-05-07 18:14 61.78303 -18.89296 31361 ft 485 kts 139°
2026-05-07 18:14 61.75751 -18.84639 31486 ft 485 kts 139°
2026-05-07 18:15 61.73198 -18.79978 31611 ft 485 kts 139°
2026-05-07 18:15 61.70647 -18.75346 31736 ft 484 kts 139°
2026-05-07 18:15 61.68113 -18.70776 31860 ft 484 kts 139°
2026-05-07 18:15 61.65552 -18.66173 31984 ft 484 kts 139°
2026-05-07 18:16 61.62989 -18.61561 32122 ft 484 kts 139°
2026-05-07 18:16 61.60428 -18.56969 32234 ft 484 kts 139°
2026-05-07 18:16 61.57866 -18.52380 32361 ft 484 kts 139°
2026-05-07 18:16 61.55335 -18.47853 32480 ft 484 kts 139°
2026-05-07 18:17 61.52774 -18.43285 32602 ft 484 kts 139°
2026-05-07 18:17 61.50258 -18.38621 32718 ft 483 kts 134°
2026-05-07 18:17 61.48044 -18.33345 32853 ft 482 kts 128°
2026-05-07 18:17 61.45923 -18.27931 32972 ft 482 kts 129°
2026-05-07 18:18 61.43783 -18.22534 33102 ft 482 kts 129°
2026-05-07 18:18 61.41634 -18.17161 33227 ft 481 kts 129°
2026-05-07 18:18 61.39485 -18.11803 33353 ft 481 kts 129°
2026-05-07 18:18 61.37335 -18.06446 33479 ft 480 kts 129°
2026-05-07 18:19 61.35190 -18.01093 33604 ft 481 kts 129°
2026-05-07 18:19 61.33046 -17.95743 33728 ft 481 kts 129°
2026-05-07 18:19 61.30902 -17.90398 33855 ft 481 kts 130°
2026-05-07 18:19 61.28757 -17.85062 33980 ft 480 kts 130°
2026-05-07 18:20 61.26611 -17.79740 34103 ft 480 kts 130°
2026-05-07 18:20 61.24459 -17.74430 34232 ft 480 kts 130°
2026-05-07 18:20 61.22304 -17.69126 34352 ft 480 kts 130°
2026-05-07 18:20 61.20152 -17.63839 34478 ft 480 kts 130°
2026-05-07 18:21 61.17989 -17.58530 34604 ft 481 kts 130°
2026-05-07 18:21 61.15830 -17.53247 34728 ft 481 kts 130°
2026-05-07 18:21 61.13696 -17.48030 34854 ft 481 kts 130°
2026-05-07 18:21 61.11530 -17.42752 34978 ft 481 kts 130°
2026-05-07 18:22 61.09362 -17.37485 35103 ft 481 kts 130°
2026-05-07 18:22 61.05013 -17.26963 35350 ft 481 kts 131°
2026-05-07 18:22 61.02836 -17.21723 35475 ft 481 kts 131°
2026-05-07 18:23 61.00660 -17.16479 35601 ft 481 kts 131°
2026-05-07 18:23 60.98486 -17.11242 35728 ft 481 kts 131°
2026-05-07 18:23 60.96308 -17.06013 35842 ft 480 kts 131°
2026-05-07 18:23 60.94132 -17.00811 35975 ft 479 kts 131°
2026-05-07 18:24 60.91956 -16.95622 36099 ft 479 kts 131°
2026-05-07 18:24 60.89776 -16.90445 36223 ft 478 kts 131°
2026-05-07 18:24 60.87595 -16.85282 36351 ft 478 kts 131°
2026-05-07 18:24 60.85413 -16.80118 36473 ft 478 kts 131°
2026-05-07 18:25 60.83240 -16.74970 36598 ft 477 kts 131°
2026-05-07 18:25 60.81070 -16.69834 36724 ft 476 kts 131°
2026-05-07 18:25 60.78896 -16.64718 36851 ft 475 kts 131°
2026-05-07 18:25 60.76754 -16.59693 37006 ft 473 kts 131°
2026-05-07 18:26 60.74588 -16.54626 37069 ft 473 kts 132°
2026-05-07 18:26 60.70237 -16.44469 37073 ft 476 kts 132°
2026-05-07 18:27 60.65862 -16.34285 37072 ft 478 kts 132°
2026-05-07 18:27 60.61455 -16.24084 37070 ft 480 kts 132°
2026-05-07 18:28 60.57031 -16.13906 37064 ft 481 kts 132°
2026-05-07 18:28 60.52589 -16.03730 37064 ft 481 kts 132°
2026-05-07 18:29 60.48140 -15.93567 37066 ft 482 kts 133°
2026-05-07 18:29 60.43678 -15.83418 37065 ft 482 kts 133°
2026-05-07 18:30 60.39209 -15.73291 37066 ft 482 kts 133°
2026-05-07 18:30 60.34727 -15.63194 37068 ft 483 kts 133°
2026-05-07 18:31 60.30226 -15.53109 37068 ft 483 kts 133°
2026-05-07 18:31 60.25721 -15.43079 37070 ft 483 kts 133°
2026-05-07 18:32 60.21212 -15.33050 37067 ft 483 kts 133°
2026-05-07 18:32 60.16704 -15.23060 37060 ft 482 kts 133°
2026-05-07 18:33 60.12210 -15.13155 37061 ft 482 kts 133°
2026-05-07 18:33 60.07685 -15.03229 37060 ft 482 kts 133°
2026-05-07 18:34 60.03157 -14.93333 37053 ft 482 kts 133°
2026-05-07 18:34 59.98604 -14.83446 37050 ft 483 kts 134°
2026-05-07 18:35 59.94035 -14.73558 37050 ft 484 kts 134°
2026-05-07 18:35 59.89495 -14.63764 37045 ft 484 kts 134°
2026-05-07 18:36 59.84909 -14.53927 37039 ft 484 kts 134°
2026-05-07 18:36 59.80318 -14.44125 37035 ft 484 kts 134°
2026-05-07 18:37 59.75718 -14.34335 37031 ft 484 kts 134°
2026-05-07 18:37 59.71128 -14.24580 36934 ft 483 kts 134°
2026-05-07 18:38 59.66535 -14.14883 36873 ft 481 kts 135°
2026-05-07 18:38 59.61938 -14.05263 36861 ft 482 kts 135°
2026-05-07 18:39 59.57361 -13.95706 36858 ft 482 kts 135°
2026-05-07 18:39 59.52740 -13.86083 36860 ft 483 kts 135°
2026-05-07 18:40 59.48120 -13.76491 36860 ft 483 kts 135°
2026-05-07 18:40 59.43487 -13.66922 36856 ft 482 kts 135°
2026-05-07 18:41 59.38857 -13.57380 36855 ft 482 kts 135°
2026-05-07 18:41 59.34214 -13.47872 36853 ft 482 kts 136°
2026-05-07 18:42 59.29569 -13.38398 36851 ft 481 kts 136°
2026-05-07 18:42 59.24917 -13.28971 36849 ft 481 kts 136°
2026-05-07 18:43 59.20266 -13.19583 36843 ft 481 kts 136°
2026-05-07 18:43 59.15649 -13.10270 36851 ft 480 kts 137°
2026-05-07 18:44 59.11011 -13.00949 36853 ft 478 kts 137°
2026-05-07 18:44 59.06376 -12.91709 36847 ft 476 kts 137°
2026-05-07 18:45 59.01748 -12.82501 36835 ft 475 kts 137°
2026-05-07 18:45 58.97145 -12.73381 36810 ft 473 kts 137°
2026-05-07 18:46 58.92540 -12.64294 36811 ft 472 kts 138°
2026-05-07 18:46 58.87937 -12.55253 36814 ft 471 kts 138°
2026-05-07 18:47 58.83327 -12.46250 36811 ft 471 kts 138°
2026-05-07 18:47 58.78740 -12.37312 36811 ft 472 kts 138°
2026-05-07 18:48 58.74119 -12.28336 36805 ft 471 kts 139°
2026-05-07 18:48 58.69502 -12.19395 36804 ft 470 kts 139°
2026-05-07 18:49 58.64882 -12.10504 36803 ft 470 kts 139°
2026-05-07 18:49 58.60248 -12.01641 36806 ft 470 kts 139°
2026-05-07 18:50 58.55621 -11.92805 36808 ft 469 kts 139°
2026-05-07 18:50 58.50990 -11.83986 36816 ft 469 kts 139°
2026-05-07 18:51 58.46351 -11.75189 36815 ft 469 kts 140°
2026-05-07 18:51 58.41720 -11.66430 36792 ft 468 kts 140°
2026-05-07 18:52 58.37087 -11.57703 36795 ft 468 kts 140°
2026-05-07 18:52 58.32442 -11.49018 36794 ft 467 kts 140°
2026-05-07 18:53 58.27827 -11.40423 36797 ft 467 kts 140°
2026-05-07 18:53 58.23158 -11.31744 36798 ft 467 kts 140°
2026-05-07 18:54 58.18512 -11.23133 36803 ft 467 kts 140°
2026-05-07 18:54 58.13886 -11.14596 36803 ft 467 kts 140°
2026-05-07 18:55 58.09228 -11.06029 36805 ft 467 kts 140°
2026-05-07 18:55 58.04568 -10.97506 36800 ft 466 kts 141°
2026-05-07 18:56 57.99915 -10.89038 36795 ft 464 kts 141°
2026-05-07 18:56 57.95279 -10.80604 36790 ft 462 kts 141°
2026-05-07 18:57 57.91398 -10.73569 36785 ft 462 kts 141°
2026-05-07 18:57 57.86787 -10.65272 36783 ft 461 kts 141°
2026-05-07 18:58 57.82162 -10.56978 36790 ft 460 kts 142°
2026-05-07 18:58 57.77537 -10.48673 36791 ft 460 kts 141°
2026-05-07 18:59 57.72902 -10.40402 36794 ft 460 kts 142°
2026-05-07 18:59 57.68260 -10.32147 36788 ft 460 kts 142°
2026-05-07 19:00 57.63621 -10.23933 36785 ft 459 kts 142°
2026-05-07 19:00 57.58971 -10.15727 36786 ft 459 kts 142°
2026-05-07 19:01 57.54321 -10.07541 36786 ft 459 kts 142°
2026-05-07 19:01 57.50203 -9.98454 36786 ft 471 kts 126°
2026-05-07 19:02 57.47664 -9.87106 36815 ft 478 kts 114°
2026-05-07 19:02 57.45529 -9.75389 36828 ft 479 kts 114°
2026-05-07 19:03 57.43384 -9.63684 36826 ft 478 kts 114°
2026-05-07 19:03 57.40710 -9.52546 36816 ft 466 kts 129°
2026-05-07 19:04 57.36484 -9.43723 36817 ft 452 kts 146°
2026-05-07 19:04 57.31559 -9.36647 36820 ft 451 kts 147°
2026-05-07 19:05 57.26599 -9.29538 36819 ft 452 kts 147°
2026-05-07 19:05 57.21636 -9.22425 36832 ft 451 kts 147°
2026-05-07 19:06 57.16664 -9.15345 36827 ft 451 kts 147°
2026-05-07 19:06 57.09186 -9.04790 36834 ft 451 kts 147°
2026-05-07 19:07 57.04190 -8.97754 36836 ft 452 kts 147°
2026-05-07 19:07 56.99205 -8.90728 36838 ft 451 kts 147°
2026-05-07 19:08 56.94230 -8.83725 36838 ft 450 kts 147°
2026-05-07 19:08 56.89280 -8.76820 36819 ft 449 kts 147°
2026-05-07 19:09 56.84302 -8.69902 36833 ft 449 kts 148°
2026-05-07 19:09 56.79331 -8.63003 36835 ft 449 kts 147°
2026-05-07 19:10 56.74345 -8.56112 36827 ft 449 kts 148°
2026-05-07 19:10 56.69359 -8.49264 36826 ft 449 kts 147°
2026-05-07 19:11 56.64372 -8.42419 36834 ft 449 kts 147°
2026-05-07 19:11 56.59490 -8.35731 36835 ft 449 kts 147°
2026-05-07 19:12 56.54494 -8.28929 36840 ft 449 kts 147°
2026-05-07 19:12 56.49490 -8.22145 36841 ft 449 kts 147°
2026-05-07 19:13 56.44481 -8.15372 36849 ft 449 kts 147°
2026-05-07 19:13 56.39475 -8.08606 36857 ft 449 kts 147°
2026-05-07 19:14 56.34460 -8.01853 36866 ft 449 kts 147°
2026-05-07 19:14 56.29441 -7.95138 36869 ft 449 kts 148°
2026-05-07 19:15 56.24413 -7.88439 36873 ft 449 kts 147°
2026-05-07 19:15 56.19422 -7.81783 36879 ft 450 kts 147°
2026-05-07 19:16 56.14395 -7.75108 36880 ft 450 kts 148°
2026-05-07 19:16 56.09357 -7.68454 36888 ft 450 kts 148°
2026-05-07 19:17 56.04313 -7.61807 36897 ft 450 kts 148°
2026-05-07 19:17 55.99268 -7.55188 36892 ft 450 kts 148°
2026-05-07 19:18 55.94022 -7.49233 36896 ft 446 kts 154°
2026-05-07 19:18 55.88627 -7.43723 36909 ft 447 kts 154°
2026-05-07 19:19 55.83230 -7.38226 36911 ft 447 kts 154°
2026-05-07 19:19 55.77834 -7.32740 36907 ft 447 kts 154°
2026-05-07 19:20 55.72434 -7.27263 36908 ft 447 kts 154°
2026-05-07 19:20 55.67027 -7.21805 36910 ft 447 kts 154°
2026-05-07 19:21 55.61620 -7.16363 36928 ft 447 kts 154°
2026-05-07 19:21 55.56216 -7.10943 36930 ft 447 kts 154°
2026-05-07 19:22 55.50807 -7.05531 36932 ft 447 kts 154°
2026-05-07 19:22 55.45395 -7.00139 36934 ft 446 kts 154°
2026-05-07 19:23 55.39980 -6.94755 36935 ft 446 kts 154°
2026-05-07 19:23 55.34575 -6.89399 36933 ft 446 kts 154°
2026-05-07 19:24 55.29194 -6.84088 36933 ft 446 kts 154°
2026-05-07 19:24 55.23772 -6.78757 36930 ft 446 kts 154°
2026-05-07 19:25 55.18354 -6.73438 36929 ft 446 kts 154°
2026-05-07 19:25 55.12930 -6.68118 36908 ft 445 kts 154°
2026-05-07 19:26 55.07522 -6.62835 36923 ft 445 kts 154°
2026-05-07 19:26 55.02106 -6.57575 36921 ft 445 kts 154°
2026-05-07 19:27 54.96723 -6.52363 36928 ft 446 kts 154°
2026-05-07 19:27 54.91294 -6.47125 36930 ft 446 kts 154°
2026-05-07 19:28 54.85864 -6.41887 36939 ft 446 kts 154°
2026-05-07 19:28 54.80514 -6.36738 36523 ft 432 kts 154°
2026-05-07 19:29 54.77894 -6.34222 36151 ft 428 kts 154°
2026-05-07 19:29 54.75280 -6.31721 35772 ft 428 kts 154°
2026-05-07 19:29 54.72674 -6.29237 35402 ft 430 kts 154°
2026-05-07 19:29 54.70050 -6.26745 35029 ft 430 kts 154°
2026-05-07 19:30 54.67420 -6.24254 34654 ft 430 kts 154°
2026-05-07 19:30 54.64889 -6.21498 34275 ft 432 kts 147°
2026-05-07 19:30 54.62461 -6.18451 33906 ft 431 kts 147°
2026-05-07 19:30 54.60031 -6.15412 33538 ft 431 kts 147°
2026-05-07 19:31 54.57599 -6.12386 33174 ft 432 kts 147°
2026-05-07 19:31 54.55161 -6.09360 32785 ft 432 kts 147°
2026-05-07 19:31 54.52717 -6.06318 32408 ft 433 kts 147°
2026-05-07 19:31 54.50265 -6.03266 32031 ft 435 kts 147°
2026-05-07 19:32 54.47805 -6.00214 31649 ft 437 kts 147°
2026-05-07 19:32 54.45362 -5.97191 31280 ft 438 kts 147°
2026-05-07 19:32 54.42885 -5.94131 30907 ft 439 kts 147°
2026-05-07 19:32 54.40403 -5.91070 30539 ft 440 kts 147°
2026-05-07 19:33 54.37905 -5.87995 30154 ft 442 kts 147°
2026-05-07 19:33 54.35401 -5.84920 29781 ft 443 kts 147°
2026-05-07 19:33 54.32893 -5.81847 29407 ft 444 kts 147°
2026-05-07 19:33 54.30371 -5.78761 29028 ft 445 kts 147°
2026-05-07 19:34 54.27847 -5.75672 28652 ft 447 kts 147°
2026-05-07 19:34 54.25305 -5.72566 28284 ft 449 kts 147°
2026-05-07 19:34 54.22762 -5.69463 27903 ft 450 kts 147°
2026-05-07 19:34 54.20219 -5.66368 27526 ft 448 kts 149°
2026-05-07 19:35 54.17494 -5.63875 27141 ft 440 kts 162°
2026-05-07 19:35 54.14549 -5.62665 26767 ft 434 kts 176°
2026-05-07 19:35 54.11562 -5.62728 26114 ft 427 kts 189°
2026-05-07 19:35 54.08689 -5.64054 24869 ft 430 kts 205°
2026-05-07 19:36 54.06058 -5.66347 24293 ft 420 kts 208°
2026-05-07 19:36 54.03474 -5.68566 23749 ft 413 kts 207°
2026-05-07 19:36 54.00940 -5.70667 23209 ft 409 kts 206°
2026-05-07 19:36 53.98373 -5.72724 22673 ft 406 kts 204°
2026-05-07 19:37 53.95680 -5.74070 22129 ft 404 kts 191°
2026-05-07 19:37 53.92879 -5.74461 21594 ft 404 kts 184°
2026-05-07 19:37 53.90085 -5.74635 21057 ft 401 kts 184°
2026-05-07 19:37 53.87318 -5.74823 20530 ft 395 kts 185°
2026-05-07 19:38 53.84590 -5.75020 19787 ft 392 kts 185°
2026-05-07 19:38 53.81807 -5.75230 18372 ft 408 kts 185°
2026-05-07 19:38 53.78977 -5.75499 17706 ft 403 kts 189°
2026-05-07 19:38 53.76336 -5.76787 17172 ft 391 kts 207°
2026-05-07 19:39 53.74155 -5.79425 16651 ft 383 kts 226°
2026-05-07 19:39 53.72664 -5.83096 16140 ft 378 kts 245°
2026-05-07 19:39 53.72024 -5.87358 15639 ft 375 kts 264°
2026-05-07 19:39 53.71947 -5.90275 15310 ft 372 kts 266°
2026-05-07 19:40 53.71889 -5.94614 14817 ft 368 kts 267°
2026-05-07 19:40 53.71838 -5.98914 14322 ft 366 kts 267°
2026-05-07 19:40 53.71782 -6.03204 13783 ft 362 kts 266°
2026-05-07 19:40 53.71729 -6.07444 13123 ft 360 kts 266°
2026-05-07 19:41 53.71662 -6.11639 12487 ft 357 kts 264°
2026-05-07 19:41 53.71106 -6.15665 11856 ft 351 kts 244°
2026-05-07 19:41 53.69731 -6.18997 11236 ft 346 kts 223°
2026-05-07 19:41 53.67730 -6.21198 10622 ft 344 kts 202°
2026-05-07 19:42 53.65398 -6.21954 10016 ft 343 kts 180°
2026-05-07 19:42 53.63071 -6.21166 9409 ft 343 kts 159°
2026-05-07 19:42 53.61085 -6.18951 8798 ft 345 kts 137°
2026-05-07 19:42 53.59732 -6.15645 8174 ft 345 kts 115°
2026-05-07 19:43 53.59127 -6.11738 7570 ft 343 kts 102°
2026-05-07 19:43 53.58748 -6.07836 6966 ft 341 kts 101°
2026-05-07 19:43 53.58382 -6.03911 6357 ft 338 kts 101°
2026-05-07 19:43 53.58019 -6.00013 5761 ft 335 kts 101°
2026-05-07 19:44 53.57659 -5.96166 5203 ft 330 kts 101°
2026-05-07 19:44 53.57311 -5.92432 5013 ft 315 kts 102°
2026-05-07 19:44 53.56983 -5.88905 5005 ft 294 kts 102°
2026-05-07 19:44 53.56678 -5.85617 5009 ft 275 kts 102°
2026-05-07 19:45 53.56394 -5.82552 5014 ft 256 kts 102°
2026-05-07 19:45 53.56128 -5.79689 5013 ft 242 kts 102°
2026-05-07 19:45 53.55654 -5.77041 5012 ft 233 kts 126°
2026-05-07 19:45 53.54500 -5.75247 4999 ft 226 kts 158°
2026-05-07 19:46 53.53016 -5.74465 4800 ft 223 kts 170°
2026-05-07 19:46 53.51505 -5.73937 4605 ft 222 kts 171°
2026-05-07 19:46 53.49989 -5.73441 4409 ft 222 kts 171°
2026-05-07 19:46 53.48492 -5.72956 4133 ft 217 kts 171°
2026-05-07 19:47 53.47018 -5.72482 3835 ft 214 kts 171°
2026-05-07 19:47 53.45570 -5.72018 3553 ft 210 kts 172°
2026-05-07 19:47 53.44162 -5.71567 3282 ft 207 kts 172°
2026-05-07 19:47 53.42761 -5.71121 3072 ft 203 kts 172°
2026-05-07 19:48 53.41363 -5.70898 3023 ft 201 kts 189°
2026-05-07 19:48 53.40081 -5.71767 3019 ft 200 kts 219°
2026-05-07 19:48 53.39283 -5.73648 3029 ft 205 kts 249°
2026-05-07 19:48 53.39183 -5.76063 3031 ft 213 kts 271°
2026-05-07 19:49 53.39341 -5.78506 3010 ft 205 kts 272°
2026-05-07 19:49 53.39489 -5.80822 3008 ft 194 kts 271°
2026-05-07 19:49 53.39620 -5.82977 3045 ft 179 kts 270°
2026-05-07 19:49 53.39740 -5.85018 3012 ft 173 kts 270°
2026-05-07 19:50 53.39857 -5.87022 3012 ft 172 kts 270°
2026-05-07 19:50 53.39973 -5.88994 3036 ft 166 kts 270°
2026-05-07 19:50 53.40083 -5.90896 3019 ft 163 kts 270°
2026-05-07 19:50 53.40192 -5.92777 3013 ft 162 kts 270°
2026-05-07 19:51 53.40301 -5.94646 3014 ft 161 kts 270°
2026-05-07 19:51 53.40409 -5.96515 3012 ft 161 kts 270°
2026-05-07 19:51 53.40517 -5.98382 3011 ft 161 kts 270°
2026-05-07 19:51 53.40625 -6.00254 2986 ft 162 kts 269°
2026-05-07 19:52 53.40732 -6.02131 2850 ft 161 kts 270°
2026-05-07 19:52 53.40839 -6.03992 2666 ft 160 kts 270°
2026-05-07 19:52 53.40944 -6.05843 2459 ft 160 kts 271°
2026-05-07 19:52 53.41050 -6.07696 2251 ft 159 kts 271°
2026-05-07 19:53 53.41155 -6.09545 2044 ft 159 kts 271°
2026-05-07 19:53 53.41259 -6.11370 1830 ft 154 kts 271°
2026-05-07 19:53 53.41357 -6.13107 1632 ft 150 kts 272°
2026-05-07 19:53 53.41454 -6.14818 1436 ft 145 kts 272°
2026-05-07 19:54 53.41549 -6.16494 1253 ft 144 kts 272°
2026-05-07 19:54 53.41641 -6.18157 1001 ft 143 kts 274°
2026-05-07 19:54 53.41738 -6.19786 786 ft 138 kts 272°
2026-05-07 19:54 53.41816 -6.21389 673 ft 138 kts 273°
2026-05-07 19:55 53.41911 -6.22984 487 ft 137 kts 273°
2026-05-07 19:55 53.41996 -6.24569 309 ft 134 kts 273°
2026-05-07 19:55 53.42076 -6.26069 213 ft 118 kts 274°
2026-05-07 19:55 53.42129 -6.26989 211 ft 31 kts 279°
2026-05-07 19:56 53.42181 -6.27061 210 ft 5 kts
2026-05-07 19:56 53.42248 -6.27053 211 ft 7 kts
2026-05-07 19:56 53.42253 -6.27052 211 ft 0 kts
2026-05-07 19:57 53.42264 -6.27050 211 ft 7 kts
2026-05-07 19:57 53.42306 -6.27011 211 ft 9 kts 70°
2026-05-07 19:58 53.42298 -6.26819 211 ft 21 kts 96°
2026-05-07 19:58 53.42281 -6.26559 214 ft 23 kts 96°
2026-05-07 19:58 53.42265 -6.26275 211 ft 26 kts 95°
2026-05-07 19:58 53.42274 -6.25972 211 ft 27 kts 65°
2026-05-07 19:59 53.42404 -6.25725 211 ft 29 kts 45°
2026-05-07 19:59 53.42503 -6.25559 214 ft 12 kts 45°
2026-05-07 19:59 53.42533 -6.25509 211 ft 5 kts 45°
2026-05-07 19:59 53.42565 -6.25453 210 ft 15 kts 45°
2026-05-07 20:00 53.42648 -6.25313 214 ft 16 kts 45°
2026-05-07 20:00 53.42723 -6.25183 217 ft 15 kts 46°
2026-05-07 20:00 53.42788 -6.25060 211 ft 13 kts 61°
2026-05-07 20:00 53.42797 -6.24924 216 ft 9 kts 86°
2026-05-07 20:01 53.42798 -6.24898 211 ft 0 kts 86°
2026-05-07 20:01 53.42798 -6.24893 211 ft 0 kts 87°
2026-05-07 20:01 53.42799 -6.24884 213 ft 1 kts 88°
2026-05-07 20:01 53.42799 -6.24881 216 ft 0 kts 88°